#timestamp,LO_Frequency,Hit,StdDev 
1544396415.2,286047000.9,N
1544396435.0,286046998.3,N
1544396435.9,286046998.3,N
1544396455.8,286046998.8,N
1544396475.6,286046999.3,N
1544396495.4,286047000.6,N
1544396515.3,286046999.7,N
1544396535.1,286047002.0,N
1544396555.9,286047001.4,N
1544396575.7,286047002.7,N
1544396595.5,286047000.3,N
1544396615.4,286047000.8,N
1544396635.2,286047002.0,N
1544396655.0,286047002.6,N
1544396655.9,286047002.6,N
1544396675.8,286047002.6,N
1544396695.6,286047002.2,N
1544396715.5,286047002.2,N
1544396735.3,286047001.5,N
1544396755.1,286047002.2,N
1544396775.9,286047003.9,N
1544396795.7,286047002.4,N
1544396815.6,286047001.9,N
1544396835.4,286047001.6,N
1544396855.2,286047001.1,N
1544396875.1,286047000.7,N
1544396876.0,286047000.7,N
1544396895.8,286047001.1,N
1544396915.7,286046998.2,N
1544396935.5,286046998.5,N
1544396955.3,286046998.5,N
1544396975.2,286047001.2,N
1544396995.0,286047000.9,N
1544396995.9,286047000.9,N
1544397015.7,286047002.6,N
1544397035.6,286047001.9,N
1544397055.4,286047002.2,N
1544397075.3,286046999.9,N
1544397095.1,286046999.9,N
1544397115.8,286047002.7,N
1544397135.7,286047001.8,N
1544397155.5,286047001.8,N
1544397175.4,286047002.0,N
1544397195.2,286047001.8,N
1544397215.0,286047001.9,N
1544397215.9,286047001.9,N
1544397235.8,286047002.7,N
1544397255.6,286047002.6,N
1544397275.5,286047002.8,N
1544397295.3,286047002.8,N
1544397315.2,286047002.6,N
1544397335.9,286047000.2,N
1544397355.7,286047000.2,N
1544397375.6,286047000.6,N
1544397395.4,286047000.7,N
1544397415.2,286046999.0,N
1544397435.1,286046998.9,N
1544397436.0,286046998.9,N
1544397455.8,286046998.3,N
1544397475.7,286047002.8,N
1544397495.5,286047000.5,N
1544397515.3,286047000.2,N
1544397535.1,286046999.8,N
1544397536.0,286046999.8,N
1544397555.8,286047000.0,N
1544397575.7,286047002.3,N
1544397595.5,286046999.7,N
1544397615.3,286047001.4,N
1544397635.2,286047001.6,N
1544397655.0,286047003.9,N
1544397655.9,286047003.9,N
1544397675.8,286047002.1,N
1544397695.6,286046999.8,N
1544397715.4,286047001.0,N
1544397735.3,286047000.0,N
1544397755.1,286047002.1,N
1544397775.9,286047003.7,N
1544397795.7,286047004.3,N
1544397815.5,286047001.6,N
1544397835.4,286047001.4,N
1544397855.2,286047002.7,N
1544397875.1,286047002.0,N
1544397876.0,286047002.0,N
1544397895.8,286047002.2,N
1544397915.6,286046999.8,N
1544397935.5,286047002.0,N
1544397955.3,286047001.9,N
1544397975.1,286047004.3,N
1544397995.9,286047002.5,N
1544398015.7,286047002.6,N
1544398035.6,286047001.2,N
1544398055.4,286047000.6,N
1544398075.2,286046999.7,N
1544398095.1,286047001.7,N
1544398096.0,286047001.7,N
1544398115.8,286047001.3,N
1544398135.7,286047001.7,N
1544398155.5,286047002.5,N
1544398175.3,286046999.8,N
1544398195.2,286047000.5,N
1544398215.0,286047001.6,N
1544398215.9,286047001.6,N
1544398235.7,286047002.7,N
1544398255.6,286047002.4,N
1544398275.4,286047001.9,N
1544398295.3,286047002.4,N
1544398315.1,286047000.8,N
1544398335.8,286046998.1,N
1544398355.7,286047001.1,N
1544398375.5,286047000.0,N
1544398395.4,286047000.4,N
1544398415.2,286047001.2,N
1544398435.0,286046998.4,N
1544398435.9,286046998.4,N
1544398455.8,286047000.9,N
1544398475.6,286046998.2,N
1544398495.4,286047001.1,N
1544398515.3,286047000.2,N
1544398535.1,286046999.8,N
1544398555.9,286047000.1,N
1544398575.7,286046999.7,N
1544398595.5,286046999.7,N
1544398615.4,286047001.7,N
1544398635.2,286047005.5,Y
1544398655.1,286047004.1,P
1544398656.0,286047004.1,N
1544398675.8,286047001.7,N
1544398695.6,286047004.1,N
1544398715.5,286047003.7,N
1544398735.3,286047001.8,N
1544398755.2,286047002.0,N
1544398775.9,286047002.5,N
1544398795.7,286047002.1,N
1544398815.6,286047002.7,N
1544398835.4,286046999.8,N
1544398855.2,286047002.3,N
1544398875.1,286047003.8,N
1544398876.0,286047003.8,N
1544398895.8,286047003.7,N
1544398915.7,286047001.3,N
1544398935.5,286047002.1,N
1544398955.3,286047002.0,N
1544398975.2,286047002.7,N
1544398995.0,286047002.4,N
1544398995.9,286047002.4,N
1544399015.7,286047002.3,N
1544399035.6,286047001.6,N
1544399055.4,286047002.0,N
1544399075.3,286047001.6,N
1544399095.1,286047004.3,Y
1544399096.0,286047004.3,P
1544399115.8,286046998.5,N
1544399135.7,286046998.8,N
1544399155.5,286047002.7,N
1544399175.3,286047000.5,N
1544399195.2,286047001.2,N
1544399215.0,286047000.8,N
1544399215.9,286047000.8,N
1544399235.8,286046998.9,N
1544399255.6,286046998.3,N
1544399275.4,286047001.0,N
1544399295.3,286047000.8,N
1544399315.1,286046998.2,N
1544399335.8,286047000.9,N
1544399355.7,286047001.0,N
1544399375.5,286046998.5,N
1544399395.4,286046998.4,N
1544399415.2,286046996.5,N
1544399435.0,286046997.3,N
1544399435.9,286046997.3,N
1544399455.8,286046996.9,N
1544399475.6,286046996.9,N
1544399495.5,286046996.6,N
1544399515.3,286046998.9,N
1544399535.1,286046998.2,N
1544399555.9,286047002.8,N
1544399575.7,286047000.5,N
1544399595.5,286047000.7,N
1544399615.4,286047001.1,N
1544399635.2,286046998.2,N
1544399655.1,286046998.4,N
1544399656.0,286046998.4,N
1544399675.8,286046999.2,N
1544399695.6,286046998.9,N
1544399715.5,286047000.6,N
1544399735.3,286047000.7,N
1544399755.1,286046998.3,N
1544399775.9,286047000.6,N
1544399795.7,286046999.7,N
1544399815.6,286047001.0,N
1544399835.4,286046998.6,N
1544399855.2,286046999.1,N
1544399875.1,286046998.7,N
1544399876.0,286046998.7,N
1544399895.8,286046998.9,N
1544399915.6,286046999.0,N
1544399935.2,286046998.4,N
1544399955.9,286047001.0,N
1544399975.7,286047000.9,N
1544399995.6,286047001.1,N
